Orbital Elements at Epoch 2459000.5 (2020-May-31.0) TDB
Reference: JPL 18 (heliocentric ecliptic J2000)
Element | Value | Uncertainty (1-sigma) | Units |
e | .1652069443990143 | 4.8254e-08 | |
a | 2.588175203096905 | 3.0092e-08 | au |
q | 2.160590686223967 | 1.2375e-07 | au |
i | 10.24336558692145 | 9.286e-06 | deg |
node | 341.4577660050718 | 2.8935e-05 | deg |
peri | 268.6710354465027 | 4.1313e-05 | deg |
M | 105.5528793216578 | 3.0272e-05 | deg |
tp | 2458554.580444176309 (2019-Mar-12.08044418) | 0.0001254 | TDB |
period | 1520.858939407352 4.16 | 2.6524e-05 7.262e-08 | d yr |
n | .2367083433393794 | 4.1282e-09 | deg/d |
Q | 3.015759719969842 | 3.5063e-08 | au |
|
| | Orbit Determination Parameters
Additional Information
|